| time (UTC) | temp C | wind direction | speed KPH | gust KPH | rain 1hr cm | rain 24hr cm | rain mn cm | humidity % | barometer mb |
| 20260507161534 | 16 | 67 | 4.8 | 17.7 | 0.00 | 0.13 | 0.08 | 41 | 1006.2 |
| 20260507160025 | 16 | 242 | 4.8 | 14.5 | 0.00 | 0.13 | 0.08 | 42 | 1006.2 |
| 20260507154530 | 15 | 14 | 1.6 | 14.5 | 0.00 | 0.13 | 0.08 | 46 | 1006.2 |
| 20260507153034 | 15 | 309 | 6.4 | 20.9 | 0.00 | 0.13 | 0.08 | 45 | 1006.4 |
| 20260507151518 | 15 | 304 | 8.0 | 20.9 | 0.00 | 0.13 | 0.08 | 46 | 1006.6 |
| 20260507150021 | 14 | 184 | 6.4 | 12.9 | 0.00 | 0.13 | 0.08 | 51 | 1006.6 |
| 20260507144514 | 14 | 279 | 1.6 | 12.9 | 0.00 | 0.13 | 0.08 | 55 | 1006.6 |
| 20260507143020 | 13 | 355 | 6.4 | 14.5 | 0.00 | 0.13 | 0.08 | 56 | 1006.7 |
| 20260507141509 | 13 | 266 | 1.6 | 20.9 | 0.00 | 0.13 | 0.08 | 61 | 1006.7 |
| 20260507140012 | 12 | 344 | 9.7 | 17.7 | 0.00 | 0.13 | 0.08 | 64 | 1006.6 |
| 20260507134507 | 12 | 169 | 1.6 | 12.9 | 0.00 | 0.13 | 0.08 | 68 | 1006.6 |
| 20260507133006 | 11 | 225 | 4.8 | 14.5 | 0.00 | 0.13 | 0.08 | 69 | 1006.7 |
| 20260507131508 | 11 | 355 | 4.8 | 17.7 | 0.00 | 0.13 | 0.08 | 73 | 1006.7 |
| 20260507130004 | 10 | 9 | 1.6 | 11.3 | 0.00 | 0.13 | 0.08 | 78 | 1006.7 |
| 20260507124503 | 10 | 275 | 3.2 | 27.4 | 0.03 | 0.13 | 0.08 | 86 | 1006.9 |
| 20260507123002 | 8 | 127 | 1.6 | 8.0 | 0.03 | 0.13 | 0.08 | 93 | 1007.0 |
| 20260507121601 | 8 | 26 | 3.2 | 14.5 | 0.03 | 0.13 | 0.08 | 96 | 1006.9 |
| 20260507120059 | 8 | 200 | 3.2 | 12.9 | 0.03 | 0.13 | 0.08 | 97 | 1006.6 |
| 20260507114559 | 8 | 41 | 0.0 | 8.0 | 0.00 | 0.10 | 0.05 | 97 | 1006.9 |
| 20260507113101 | 8 | 209 | 0.0 | 3.2 | 0.00 | 0.10 | 0.05 | 97 | 1006.6 |
| 20260507111556 | 8 | 76 | 0.0 | 3.2 | 0.00 | 0.10 | 0.05 | 97 | 1006.6 |
| 20260507110055 | 8 | 76 | 0.0 | 3.2 | 0.00 | 0.10 | 0.05 | 96 | 1006.4 |
| 20260507104554 | 8 | 75 | 0.0 | 3.2 | 0.00 | 0.10 | 0.05 | 96 | 1006.6 |
| 20260507103053 | 8 | 161 | 0.0 | 3.2 | 0.00 | 0.10 | 0.05 | 96 | 1006.2 |
| 20260507101556 | 8 | 192 | 0.0 | 3.2 | 0.00 | 0.10 | 0.05 | 95 | 1006.1 |
| 20260507100053 | 8 | 46 | 0.0 | 3.2 | 0.00 | 0.10 | 0.05 | 95 | 1006.0 |
| 20260507094551 | 8 | 24 | 0.0 | 3.2 | 0.03 | 0.10 | 0.05 | 94 | 1005.9 |
| 20260507093053 | 8 | 355 | 0.0 | 3.2 | 0.03 | 0.10 | 0.05 | 94 | 1006.0 |
| 20260507091548 | 8 | 32 | 0.0 | 3.2 | 0.03 | 0.10 | 0.05 | 93 | 1006.0 |
| 20260507090047 | 8 | 333 | 0.0 | 3.2 | 0.03 | 0.10 | 0.05 | 92 | 1006.5 |
| 20260507084550 | 8 | 261 | 1.6 | 4.8 | 0.00 | 0.08 | 0.03 | 92 | 1006.4 |
| 20260507083044 | 8 | 275 | 1.6 | 3.2 | 0.00 | 0.08 | 0.03 | 91 | 1006.4 |
| 20260507081543 | 8 | 263 | 0.0 | 3.2 | 0.00 | 0.08 | 0.03 | 90 | 1006.0 |
| 20260507080042 | 8 | 350 | 0.0 | 3.2 | 0.00 | 0.08 | 0.03 | 89 | 1006.2 |
| 20260507074540 | 9 | 5 | 0.0 | 3.2 | 0.00 | 0.08 | 0.03 | 87 | 1006.1 |
| 20260507073038 | 10 | 324 | 0.0 | 3.2 | 0.00 | 0.08 | 0.03 | 84 | 1006.1 |
| 20260507071600 | 10 | 344 | 0.0 | 6.4 | 0.00 | 0.08 | 0.03 | 81 | 1005.5 |
| 20260507070035 | 10 | 26 | 1.6 | 9.7 | 0.00 | 0.08 | 0.03 | 81 | 1005.3 |
| 20260507064535 | 10 | 282 | 0.0 | 4.8 | 0.00 | 0.08 | 0.03 | 81 | 1005.4 |
| 20260507063037 | 10 | 199 | 0.0 | 6.4 | 0.00 | 0.08 | 0.03 | 81 | 1005.5 |
| 20260507061530 | 11 | 121 | 0.0 | 6.4 | 0.00 | 0.08 | 0.03 | 83 | 1005.5 |
| 20260507060037 | 11 | 309 | 0.0 | 9.7 | 0.00 | 0.08 | 0.03 | 86 | 1005.5 |
| 20260507054527 | 11 | 290 | 1.6 | 4.8 | 0.00 | 0.08 | 0.03 | 87 | 1005.7 |
| 20260507053039 | 11 | 308 | 0.0 | 4.8 | 0.03 | 0.08 | 0.03 | 87 | 1006.0 |
| 20260507051531 | 12 | 18 | 0.0 | 11.3 | 0.03 | 0.08 | 0.03 | 87 | 1005.8 |
| 20260507050029 | 12 | 263 | 0.0 | 3.2 | 0.03 | 0.08 | 0.03 | 88 | 1005.5 |
| 20260507044522 | 12 | 18 | 1.6 | 4.8 | 0.03 | 0.08 | 0.03 | 91 | 1005.7 |
| 20260507043018 | 13 | 202 | 0.0 | 4.8 | 0.00 | 0.05 | 0.00 | 91 | 1005.5 |
| 20260507041517 | 13 | 227 | 0.0 | 11.3 | 0.00 | 0.05 | 0.00 | 90 | 1005.5 |
| 20260507040015 | 13 | 203 | 1.6 | 6.4 | 0.00 | 0.05 | 0.05 | 91 | 1005.5 |
| 20260507034528 | 13 | 227 | 1.6 | 14.5 | 0.00 | 0.05 | 0.05 | 90 | 1005.4 |
| 20260507033018 | 14 | 324 | 3.2 | 11.3 | 0.00 | 0.05 | 0.05 | 95 | 1004.9 |
| 20260507031513 | 14 | 216 | 1.6 | 4.8 | 0.00 | 0.05 | 0.05 | 96 | 1004.9 |
| 20260507030011 | 14 | 207 | 1.6 | 8.0 | 0.00 | 0.05 | 0.05 | 96 | 1004.9 |
| 20260507024512 | 14 | 186 | 6.4 | 12.9 | 0.00 | 0.05 | 0.05 | 96 | 1004.4 |
| 20260507023020 | 14 | 159 | 3.2 | 11.3 | 0.00 | 0.05 | 0.05 | 96 | 1004.7 |
| 20260507021510 | 14 | 235 | 3.2 | 14.5 | 0.00 | 0.05 | 0.05 | 96 | 1004.5 |
| 20260507020012 | 14 | 217 | 4.8 | 12.9 | 0.00 | 0.05 | 0.05 | 96 | 1004.8 |
| 20260507014512 | 14 | 172 | 3.2 | 11.3 | 0.00 | 0.05 | 0.05 | 96 | 1004.5 |
| 20260507013007 | 14 | 149 | 4.8 | 14.5 | 0.00 | 0.05 | 0.05 | 96 | 1004.5 |
| 20260507011506 | 14 | 182 | 4.8 | 16.1 | 0.00 | 0.05 | 0.05 | 96 | 1004.9 |
| 20260507010006 | 14 | 159 | 3.2 | 14.5 | 0.00 | 0.05 | 0.05 | 96 | 1004.9 |
| 20260507004504 | 14 | 173 | 6.4 | 16.1 | 0.00 | 0.05 | 0.05 | 96 | 1004.8 |
| 20260507003003 | 14 | 185 | 4.8 | 14.5 | 0.00 | 0.05 | 0.05 | 96 | 1004.7 |
| 20260507001501 | 14 | 163 | 6.4 | 14.5 | 0.00 | 0.05 | 0.05 | 97 | 1004.5 |
| 20260507000002 | 14 | 149 | 4.8 | 12.9 | 0.00 | 0.05 | 0.05 | 97 | 1004.4 |
| 20260506234603 | 14 | 181 | 3.2 | 12.9 | 0.03 | 0.05 | 0.05 | 97 | 1004.4 |
| 20260506233059 | 14 | 170 | 4.8 | 11.3 | 0.03 | 0.05 | 0.05 | 96 | 1004.3 |
| 20260506231602 | 14 | 163 | 4.8 | 19.3 | 0.03 | 0.05 | 0.05 | 96 | 1004.4 |
| 20260506230058 | 14 | 172 | 3.2 | 12.9 | 0.03 | 0.05 | 0.05 | 96 | 1004.4 |
| 20260506224556 | 14 | 166 | 1.6 | 11.3 | 0.00 | 0.03 | 0.03 | 95 | 1004.4 |
| 20260506223055 | 14 | 148 | 4.8 | 12.9 | 0.00 | 0.03 | 0.03 | 94 | 1004.5 |
| 20260506221553 | 14 | 144 | 3.2 | 19.3 | 0.00 | 0.03 | 0.03 | 93 | 1004.7 |
| 20260506220054 | 15 | 136 | 4.8 | 12.9 | 0.00 | 0.03 | 0.03 | 93 | 1004.8 |
| 20260506214602 | 15 | 179 | 4.8 | 16.1 | 0.00 | 0.03 | 0.03 | 92 | 1004.9 |
| 20260506213051 | 15 | 255 | 1.6 | 12.9 | 0.00 | 0.03 | 0.03 | 91 | 1005.1 |
| 20260506211550 | 15 | 105 | 6.4 | 19.3 | 0.00 | 0.03 | 0.03 | 90 | 1005.1 |
| 20260506210050 | 15 | 211 | 9.7 | 25.7 | 0.00 | 0.03 | 0.03 | 90 | 1005.3 |
| 20260506204551 | 15 | 153 | 6.4 | 16.1 | 0.00 | 0.03 | 0.03 | 89 | 1005.4 |
| 20260506203047 | 15 | 150 | 4.8 | 11.3 | 0.00 | 0.03 | 0.03 | 88 | 1005.4 |
| 20260506201547 | 15 | 169 | 6.4 | 20.9 | 0.03 | 0.03 | 0.03 | 88 | 1005.4 |
| 20260506200049 | 15 | 194 | 3.2 | 24.1 | 0.03 | 0.03 | 0.03 | 89 | 1005.4 |
| 20260506194546 | 15 | 171 | 8.0 | 20.9 | 0.03 | 0.03 | 0.03 | 88 | 1005.4 |
| 20260506193052 | 15 | 176 | 6.4 | 19.3 | 0.03 | 0.03 | 0.03 | 88 | 1005.5 |
| 20260506191548 | 16 | 159 | 4.8 | 22.5 | 0.00 | 0.00 | 0.00 | 85 | 1005.5 |
| 20260506190041 | 16 | 157 | 8.0 | 20.9 | 0.00 | 0.00 | 0.00 | 83 | 1005.5 |
| 20260506184543 | 17 | 149 | 3.2 | 22.5 | 0.00 | 0.00 | 0.00 | 79 | 1005.8 |
| 20260506183040 | 18 | 218 | 6.4 | 20.9 | 0.00 | 0.00 | 0.00 | 73 | 1006.2 |
| 20260506181549 | 18 | 194 | 8.0 | 24.1 | 0.00 | 0.00 | 0.00 | 68 | 1005.9 |
| 20260506180055 | 20 | 190 | 9.7 | 24.1 | 0.00 | 0.00 | 0.00 | 63 | 1005.9 |
| 20260506174539 | 20 | 207 | 8.0 | 33.8 | 0.00 | 0.00 | 0.00 | 59 | 1005.9 |
| 20260506173042 | 21 | 159 | 16.1 | 35.4 | 0.00 | 0.00 | 0.00 | 55 | 1005.8 |
| 20260506171539 | 21 | 182 | 8.0 | 37.0 | 0.00 | 0.00 | 0.00 | 54 | 1006.0 |
| 20260506170037 | 21 | 221 | 11.3 | 27.4 | 0.00 | 0.00 | 0.00 | 54 | 1006.0 |
| 20260506164535 | 21 | 163 | 6.4 | 35.4 | 0.00 | 0.00 | 0.00 | 55 | 1006.4 |
| 20260506163038 | 21 | 177 | 11.3 | 30.6 | 0.00 | 0.00 | 0.00 | 55 | 1006.4 |